Regional Weather Roundup
Issued by NWS

Home | Current Version | Previous Version | Graphics & Text | Print | Product List | Glossary On
Versions: 1 2 3 4 5 6 7 8 9 10 11 12 13 14 15 16 17 18 19 20 21 22 23 24 25 26 27 28 29 30 31 32 33 34 35 36 37 38 39 40 41 42 43 44 45 46 47 48 49 50
000
ASUS45 KCYS 261210
RWRWY

WYOMING REGIONAL WEATHER ROUNDUP
NATIONAL WEATHER SERVICE CHEYENNE WY
600 AM MDT SUN APR 26 2015

NOTE:  "FAIR" INDICATES FEW OR NO CLOUDS BELOW 12,000 FEET
WITH NO SIGNIFICANT WEATHER AND/OR OBSTRUCTIONS TO VISIBILITY.

WYZ001-261300-
YELLOWSTONE NATIONAL PARK

CITY           SKY/WX    TMP DP  RH WIND       PRES   REMARKS
LK YELLOWSTONE   N/A     31  27  85 E5        29.84R WCI  26
6HR MIN TEMP:  31; 6HR MAX TEMP:  32; 6HR PCP:  0.02;

W YELLOWSTONE  NOT AVBL

$$
WYZ002>013-054>058-071-098>099-261300-
NORTHERN WYOMING

CITY           SKY/WX    TMP DP  RH WIND       PRES   REMARKS
JACKSON        CLOUDY    36  36 100 N7        29.76S WCI  30
CODY           CLOUDY    37  32  81 N15       29.88R WCI  28
GREYBULL       CLOUDY    41  36  82 CALM      29.85R
6HR MIN TEMP:  41; 6HR MAX TEMP:  45; 6HR PCP: TRACE;

WORLAND        CLOUDY    40  36  86 CALM      29.83S
6HR MIN TEMP:  37; 6HR MAX TEMP:  45; 6HR PCP:  0.01;

SHERIDAN       CLOUDY    38  34  85 N6        29.93R WCI  33
6HR MIN TEMP:  34; 6HR MAX TEMP:  41;

BUFFALO        CLOUDY    38  32  79 NE5       29.93R WCI  34
6HR MIN TEMP:  38; 6HR MAX TEMP:  40; 6HR PCP: TRACE;

GILLETTE       CLOUDY    40  35  83 NE14      29.91S WCI  32
6HR MIN TEMP:  39; 6HR MAX TEMP:  41;

HULETT         CLOUDY    39  36  87 NE8       29.94S WCI  34
NEWCASTLE      PTSUNNY   41  41 100 NW3       29.88S

$$
WYZ014>020-022>026-101>103-261300-
CENTRAL WYOMING

CITY           SKY/WX    TMP DP  RH WIND       PRES   REMARKS
BIG PINEY      LGT RAIN  37  34  89 SE17      29.74S WCI  27
6HR MIN TEMP:  34; 6HR MAX TEMP:  38; 6HR PCP:  0.16;

PINEDALE       LGT RAIN  34  34 100 NE5       29.75S WCI  30
DUBOIS         LGT SNOW  30  30 100 SE8       29.81R WCI  23
LANDER         FLURRIES  34  33  96 NW9       29.81R WCI  27
6HR MIN TEMP:  34; 6HR MAX TEMP:  41; 6HR PCP:  0.22;

RIVERTON       LGT RAIN  37  35  92 NE10      29.82R WCI  30
6HR MIN TEMP:  36; 6HR MAX TEMP:  41; 6HR PCP:  0.19;

CASPER         RAIN      36  34  92 N12       29.87R FOG     WCI  28
6HR MIN TEMP:  36; 6HR MAX TEMP:  41; 6HR PCP:  0.15;

DOUGLAS        LGT RAIN  41  39  93 NE13      29.84F
6HR MIN TEMP:  40; 6HR MAX TEMP:  43; 6HR PCP:  0.07;


$$
WYZ021-027>030-104>119-261300-
SOUTHERN WYOMING

CITY           SKY/WX    TMP DP  RH WIND       PRES   REMARKS
EVANSTON       SNOW      32  31  96 SW7       29.75R VSB 1/2 WCI  26
6HR MIN TEMP:  32; 6HR MAX TEMP:  35; 6HR PCP:  0.10;

KEMMERER       DRIZZLE   34  34 100 N6        29.73R WCI  29
FORT BRIDGER   CLOUDY    36  36 100 W12       29.76R WCI  27
ROCK SPRINGS   FAIR      38  33  82 E7        29.73R WCI  33
6HR MIN TEMP:  38; 6HR MAX TEMP:  42; 6HR PCP: TRACE;

DIXON          FAIR      39  34  83 E7        29.77S WCI  34
RAWLINS        CLOUDY    37  34  89 NE13      29.78S WCI  29
6HR MIN TEMP:  37; 6HR MAX TEMP:  43; 6HR PCP: TRACE;

SARATOGA       CLOUDY    37  36  93 S6        29.78S WCI  33
LARAMIE        CLOUDY    34  33  96 NW7       29.81R WCI  28
6HR MIN TEMP:  34; 6HR MAX TEMP:  40; 6HR PCP:  0.27;

CHEYENNE       LGT RAIN  42  41  96 SE15      29.82R
6HR MIN TEMP:  42; 6HR MAX TEMP:  43; 6HR PCP:  0.09;

TORRINGTON     LGT RAIN  48  46  93 E7        29.82R
6HR MIN TEMP:  47; 6HR MAX TEMP:  51; 6HR PCP:  0.03;

PINE BLUFFS    CLOUDY    43  41  93 SE16G24   29.83R

$$



USA.gov is the U.S. government's official web portal to all federal, state and local government web resources and services.